FENGYUN 1C DEB

Satellite information

Favourite Embed

Satellite Type and Status

DEBRISIN ORBIT

Key statistics

Satellite FENGYUN 1C DEB at a glance.

Uptime

9615

Days in orbit

Revolutions

≈ 14.4

Per day

Orbit

SSO

Sun Synchronous Orbit

Inclination

98.3

Latest

Satellite identification and parameters

Extended collection of information and parameters for FENGYUN 1C DEB.

Object identification

Identified? True

Debris? True

Object name: FENGYUN 1C DEB

International designator: 1999-025ATR

Object number (NORAD): 30755

Object ID (CCSDS): 30755

Country: PEOPLES REPUBLIC OF CHINA (PRC)

Current information (Y/N): Y

RCS size: SMALL

Orbital parameters

Period: 99.707 minutes

Inclination: 98.2544 deg

SMA: 7122.703 km

Apoapsis: 853.328 km

Periapsis: 635.808 km

RAAN: 242.8588 deg

Eccentricy: 0.01526951

Argument of periapsis: 216.396 deg

Mean anomaly: 307.8673 deg

Mean motion: 14.44227199 rev/day

Mean motion (dot): 0.00002667 rev/day2

B* drag term: 0.00068597099 1/REarth

Two-line elements (TLE)

Creation date: Sept. 2, 2025, 11:42 p.m.

Reference frame: TEME

Reference center: EARTH

Epoch: Sept. 2, 2025, 10:45 a.m. UTC

TLE line 0: 0 FENGYUN 1C DEB

TLE line 1: 1 30755U 99025ATR 25245.44845771 .00002667 00000-0 68597-3 0 9992

TLE line 2: 2 30755 98.2544 242.8588 0152695 216.3960 307.8673 14.44227199969827

Live tracking on map

Real-time ground track for satellite FENGYUN 1C DEB.

In-orbit conjunctions

A list of the most updated potential collisions computed for object FENGYUN 1C DEB.

Target Orbit TCA Probability of collision Miss distance Type
ASUSAT SSO 2024-12-30 22:34:22 0.0001115617 704.0 (m) PAYLOAD

Associated space launch

Chinese polar orbiting meteorological satellite

FENGYUN 1C DEB was lifted into orbit during the mission ‘Long March 4B | Feng Yun 1C’, on board a Long March 4B space rocket.

The launch took place on May 10, 1999, 1:33 a.m. from Launch Complex 7.

For more information about the launch, click the button.

Launch to space Long March 4B | Feng Yun 1C
Long March 4B | Feng Yun 1C

Agency: N/A

Status: Launch Successful

Launch date: May 10, 1999, 1:33 a.m. UTC

Rocket: Long March 4B

Launch pad: Launch Complex 7

Location: Taiyuan Satellite Launch Center, People's Republic of China

...

Latest news about this satellite

There are no fresh news available about this satellite. Check back as we update our databases every day.


Newsletter sign-up

Weekly statistics, charts and insights to help you stay on top of the space industry.